[Iaude] MPEC M83: 2019 EQ7 [a=53.11,e=0.33,i=6.1,H=8.53]
    mpec at cfa.harvard.edu 
    mpec at cfa.harvard.edu
       
    Thu Jun 27 03:02:07 EDT 2024
    
    
  
M.P.E.C. 2024-M83                                 Issued 2024 June 27, 07:00 UT
     The Minor Planet Electronic Circulars contain information on unusual
         minor planets, routine data on comets and natural satellites,
         and occasional editorial announcements.  They are published
    on behalf of Division F of the International Astronomical Union by the
          Minor Planet Center, Smithsonian Astrophysical Observatory,
                          Cambridge, MA 02138, U.S.A.
			  
             Prepared using the Tamkin Foundation Computer Network
                              MPC at CFA.HARVARD.EDU
            URL https://www.minorplanetcenter.net/    ISSN 1523-6714
                                    2019 EQ7                                    
Additional Observations:
     K19E07Q 1C2018 04 22.28263612 00 49.16 +04 08 38.4                WEM083T09
     K19E07Q 1C2018 04 24.38259412 00 40.78 +04 09 28.2                WEM083T09
     K19E07Q 1C2018 04 24.42289912 00 40.61 +04 09 29.1                WEM083T09
     K19E07Q 1C2019 04 04.49301812 09 32.13 +03 22 49.0                WEM083T09
Observer details:
T09 Subaru Telescope, Maunakea.  Observer .  Measurer S. Deen.  8.3-m Subaru
    Telescope + CCD.
Orbital elements:
2019 EQ7                                                                        
Epoch 2024 Mar. 31.0 TT = JDT 2460400.5                 Alexandersen            
M  15.76490              (2000.0)            P               Q                  
n   0.00254647     Peri.   17.13680     -0.92803835     -0.36644861             
a  53.1100339      Node   141.15646     +0.32805308     -0.88901580             
e   0.3299366      Incl.    6.11255     +0.17642562     -0.27452928             
P 387              H    8.53          G   0.15           U   8                  
Residuals in seconds of arc
180422 T09  0.0   0.1-    190205 T09  0.0   0.1-    190303 T09  0.1+  0.1-
180424 T09  0.0   0.1+    190303 T09  0.1-  0.3+    190329 T09  0.7+  0.9-
180424 T09  0.1-  0.0     190303 T09  0.2-  0.2+    190329 T09  0.2-  0.1-
190205 T09  0.1-  0.0     190303 T09  0.3+  0.1+    190329 T09  0.3-  0.4+
190205 T09  0.0   0.0     190303 T09  0.0   0.1+    190404 T09  0.3-  0.3+
Ephemeris:
2019 EQ7                 a,e,i = 53.11, 0.33, 6                  q = 35.5871
Date    TT    R. A. (2000) Decl.     Delta      r    Elong.  Phase     V
2024 05 28    12 41 53.0 +00 38 04  36.4786 37.0317   122.4     1.3    24.4
...
2024 06 12    12 41 29.1 +00 39 03  36.7117 37.0384   108.0     1.5    24.4
...
2024 06 20    12 41 24.9 +00 38 35  36.8452 37.0420   100.4     1.5    24.4
...
2024 06 26    12 41 25.8 +00 37 48  36.9475 37.0446    94.7     1.6    24.4
2024 06 27    12 41 26.3 +00 37 38  36.9647 37.0451    93.8     1.6    24.4
2024 06 28    12 41 26.9 +00 37 27  36.9819 37.0455    92.8     1.6    24.4
...
2024 07 04    12 41 32.4 +00 36 10  37.0852 37.0482    87.1     1.6    24.4
...
2024 07 12    12 41 45.2 +00 33 53  37.2220 37.0518    79.6     1.5    24.4
...
2024 07 27    12 42 25.2 +00 28 01  37.4678 37.0585    65.5     1.4    24.4
M. P. C. Staff               (C) Copyright 2024 MPC           M.P.E.C. 2024-M83
    
    
More information about the Iaude
mailing list